Tracking 23726 objects as of 24-Sep-2021
HD Live streaming from Space Station
objects crossing your sky now

DELTA 1 DEB

Track DELTA 1 DEB now!
10-day predictions


NORAD ID: 12265
Int'l Code: 1978-026DJ
Perigee: 736.7 km
Apogee: 945.3 km
Inclination: 98.7 °
Period: 101.6 minutes
Semi major axis: 7212 km
RCS: 0.051 m2 (small)
Launch date: March 5, 1978
Source: United States (US)
Launch site: AIR FORCE WESTERN TEST RANGE (AFWTR)

Note: This is SATELLITE DEBRIS
aabbcc
Your satellite tracking list
Your tracking list is empty




NASA's NSSDC Master Catalog

Two Line Element Set (TLE):
1 12265U 78026DJ  21266.92023622  .00000598  00000-0  28518-3 0  9991
2 12265  98.7379  56.0003 0144606  62.9817  54.2155 14.17479344 67042
Source of the keplerian elements: AFSPC